Date,TemperatureHighF,TemperatureAvgF,TemperatureLowF,DewpointHighF,DewpointAvgF,DewpointLowF,HumidityHigh,HumidityAvg,HumidityLow,PressureMaxIn,PressureMinIn,WindSpeedMaxMPH,WindSpeedAvgMPH,GustSpeedMaxMPH,PrecipitationSumIn
2013-3-1,48.6,36.9,29.6,27.0,23.4,17.7,74,59,40,30.52,30.40,9,4,13,0.00
2013-3-2,56.8,39.7,26.7,30.1,25.8,21.1,81,60,33,30.52,30.18,14,6,19,0.00
2013-3-3,55.3,42.5,33.0,37.0,29.3,26.2,87,61,36,30.18,29.86,16,5,19,0.04
2013-3-4,49.6,38.7,28.7,40.2,28.0,13.6,93,68,40,30.27,29.83,14,4,23,0.05
2013-3-5,49.6,33.6,22.0,18.7,12.5,5.8,63,45,17,30.39,30.13,16,8,20,0.00
2013-3-6,64.1,44.4,28.0,25.7,19.3,16.3,65,41,17,30.15,29.86,22,9,33,0.00
2013-3-7,65.3,50.9,35.3,27.0,17.9,5.6,67,33,10,29.99,29.84,22,6,30,0.00
2013-3-8,54.8,42.6,36.8,38.4,29.3,21.0,92,63,29,29.89,29.68,15,3,20,0.12
2013-3-9,40.2,34.9,32.5,35.4,30.5,19.7,94,85,56,30.11,29.65,17,4,23,0.08
2013-3-10,48.0,36.0,25.3,26.0,21.3,17.2,73,56,34,30.28,30.11,14,6,19,0.00
2013-3-11,51.0,39.2,28.6,29.8,25.1,21.4,76,59,38,30.25,30.09,13,6,17,0.00
2013-3-12,57.5,45.5,34.5,30.9,29.1,26.8,79,55,32,30.31,30.16,9,3,14,0.00
2013-3-13,63.4,47.3,34.3,30.2,26.3,17.7,77,49,18,30.42,30.30,15,6,19,0.00
2013-3-14,70.0,51.1,35.7,30.9,27.5,21.2,71,44,17,30.43,30.24,18,7,21,0.00
2013-3-15,69.8,52.7,39.8,31.3,29.2,23.5,66,43,18,30.26,29.97,15,7,18,0.00
2013-3-16,64.6,53.0,42.7,35.1,31.9,29.4,69,45,30,29.98,29.84,16,5,29,0.00
2013-3-17,59.2,48.2,40.4,35.6,20.9,1.5,72,40,14,29.93,29.71,21,6,31,0.00
2013-3-18,55.3,44.7,32.8,17.7,11.5,4.3,50,27,15,30.07,29.93,16,3,24,0.00
2013-3-19,55.5,45.4,36.5,20.1,6.8,-11.3,51,25,6,30.23,30.02,13,5,18,0.00
2013-3-20,58.5,44.4,31.1,31.2,14.6,5.0,55,31,18,30.23,29.85,18,7,22,0.00
2013-3-21,52.1,43.6,37.2,40.6,27.2,3.3,91,58,14,29.92,29.72,14,3,29,0.28
2013-3-22,52.6,38.9,29.9,23.1,17.1,0.0,68,45,12,29.92,29.65,17,7,31,0.00
2013-3-23,34.9,29.0,22.1,20.0,7.7,1.6,69,41,26,30.14,29.86,17,5,22,0.00
2013-3-24,37.6,28.3,19.4,13.8,7.3,0.4,59,42,22,30.19,30.07,13,6,21,0.00
2013-3-25,45.6,31.5,18.5,9.4,4.8,-5.1,60,36,12,30.28,30.12,16,7,20,0.00
2013-3-26,62.1,43.2,28.9,21.0,12.6,6.0,43,30,16,30.16,29.88,18,8,23,0.00
2013-3-27,66.7,51.7,37.4,27.9,20.4,12.1,61,33,13,30.07,29.93,14,6,18,0.00
2013-3-28,70.6,54.1,39.4,23.0,20.0,16.5,49,29,13,30.10,29.99,16,6,20,0.00
2013-3-29,70.2,55.7,43.9,31.8,26.0,21.1,46,33,16,30.19,30.08,15,6,21,0.00
2013-3-30,71.7,54.8,40.1,33.1,28.9,20.6,67,41,15,30.23,30.06,14,6,29,0.00
2013-3-31,70.1,54.8,39.6,29.4,22.4,7.6,59,33,10,30.17,29.96,17,7,21,0.00